Location: Bittelbronn
(48.4454°N, 8.5870°E)
Time: 20:58:53
(UTC+00:00)

Helios 1A Rocket - Pass Details

Date: 23 May 2024
Orbit: 520 x 543 km, 98.3° (Epoch: 16 June)

Event Time Altitude Azimuth Distance (km) Brightness Sun altitude
Exits shadow 00:07:57 39° 128° (SE) 816 3.4 -20.2°
Maximum altitude 00:09:05 57° 72° (ENE) 639 3.2 -20.1°
Drops below altitude 10° 00:12:53 10° 354° (N) 1,794 6.5 -20.0°
Sets 00:15:01 0° 350° (N) 2,685 7.5 -19.9°
